Morris, MN

7:22 AM CDT on April 23, 2018 (GMT -0500)
Morris Municipal

Weather History for KMOX - March, 2014

Change the Weather History Date:

Thursday, March 13, 2014

  Actual Average Record
Temperature  
Mean Temperature 43 °F -  
Max Temperature 60 °F 31 °F 62 °F (2012)
Min Temperature 26 °F 14 °F 1 °F (1999)
Degree Days  
Heating Degree Days 22    
Moisture  
Dew Point 33 °F    
Average Humidity 71    
Maximum Humidity 100    
Minimum Humidity 39    
Precipitation  
Precipitation 0.00 in - - ()
Sea Level Pressure  
Sea Level Pressure 29.68 in    
Wind  
Wind Speed 11 mph (SW)    
Max Wind Speed 24 mph    
Max Gust Speed 30 mph    
Visibility 9 miles    
Events      
Averages and records for this station are not official NWS values.
T = Trace of Precipitation, MM = Missing Value Source: NWS Daily Summary

Daily Weather History Graph

Daily Weather History Graph

Search for Another Location

Airport or City:

Astronomy

Mar. 13, 2014 Rise Set
Actual Time 7:40 AM CDT 7:27 PM CDT
Civil Twilight 7:10 AM CDT 7:56 PM CDT
Nautical Twilight 6:36 AM CDT 8:31 PM CDT
Astronomical Twilight 6:01 AM CDT 9:06 PM CDT
Moon 4:48 PM CDT (3/13) 5:54 AM CDT (3/13)
Length of Visible Light 12h 46m
Length of Day
11h 47m
Waxing Gibbous, 91% of the Moon is Illuminated
Mar 13
Waxing Gibbous
Mar 16
Full
Mar 23
Last Quarter
Mar 30
New
Apr 7
First Quarter

Hourly Weather History & Observations

Time (CDT) Temp. Windchill Dew Point Humidity Pressure Visibility Wind Dir Wind Speed Gust Speed Precip Events Conditions
12:16 AM 30.2 °F 20.8 °F 26.6 °F 86% 29.90 in 10.0 mi SSE 11.5 mph - N/A   Clear
12:36 AM 28.4 °F 18.5 °F 26.6 °F 93% 29.89 in 10.0 mi SSE 11.5 mph - N/A   Clear
12:56 AM 28.4 °F 18.5 °F 26.6 °F 93% 29.88 in 10.0 mi SSE 11.5 mph - N/A   Clear
1:16 AM 28.4 °F 18.5 °F 26.6 °F 93% 29.87 in 10.0 mi SSE 11.5 mph - N/A   Clear
1:36 AM 28.4 °F 19.1 °F 26.6 °F 93% 29.86 in 7.0 mi SSE 10.4 mph - N/A   Clear
1:56 AM 28.4 °F 19.1 °F 26.6 °F 93% 29.86 in 7.0 mi SSE 10.4 mph - N/A   Clear
2:16 AM 28.4 °F 19.1 °F 26.6 °F 93% 29.85 in 7.0 mi South 10.4 mph - N/A   Clear
2:36 AM 28.4 °F 19.7 °F 26.6 °F 93% 29.84 in 5.0 mi SSE 9.2 mph - N/A   Clear
2:56 AM 28.4 °F 21.2 °F 26.6 °F 93% 29.84 in 5.0 mi South 6.9 mph - N/A   Clear
3:16 AM 28.4 °F 20.4 °F 26.6 °F 93% 29.82 in 4.0 mi South 8.1 mph - N/A   Clear
3:36 AM 28.4 °F 21.2 °F 26.6 °F 93% 29.82 in 4.0 mi South 6.9 mph - N/A   Clear
3:56 AM 28.4 °F 21.2 °F 26.6 °F 93% 29.82 in 3.0 mi South 6.9 mph - N/A   Clear
4:16 AM 26.6 °F 19.1 °F 26.6 °F 100% 29.81 in 4.0 mi South 6.9 mph - N/A   Clear
4:36 AM 26.6 °F 21.2 °F 24.8 °F 93% 29.80 in 4.0 mi South 4.6 mph - N/A   Clear
4:56 AM 26.6 °F 22.6 °F 24.8 °F 93% 29.80 in 4.0 mi SW 3.5 mph - N/A   Clear
5:16 AM 28.4 °F 23.3 °F 26.6 °F 93% 29.80 in 7.0 mi SW 4.6 mph - N/A   Clear
5:36 AM 28.4 °F 23.3 °F 26.6 °F 93% 29.79 in 10.0 mi WSW 4.6 mph - N/A   Clear
5:56 AM 28.4 °F 23.3 °F 26.6 °F 93% 29.79 in 10.0 mi WSW 4.6 mph - N/A   Clear
6:16 AM 28.4 °F 21.2 °F 26.6 °F 93% 29.79 in 10.0 mi WSW 6.9 mph - N/A   Clear
6:36 AM 30.2 °F 26.7 °F 26.6 °F 86% 29.78 in 10.0 mi WSW 3.5 mph - N/A   Clear
6:56 AM 30.2 °F 25.4 °F 26.6 °F 86% 29.78 in 10.0 mi WSW 4.6 mph - N/A   Clear
7:16 AM 30.2 °F 24.3 °F 26.6 °F 86% 29.78 in 10.0 mi WSW 5.8 mph - N/A   Clear
7:36 AM 28.4 °F 23.3 °F 26.6 °F 93% 29.78 in 10.0 mi WSW 4.6 mph - N/A   Clear
7:56 AM 30.2 °F 24.3 °F 26.6 °F 86% 29.77 in 10.0 mi SW 5.8 mph - N/A   Clear
8:16 AM 33.8 °F 29.6 °F 28.4 °F 81% 29.76 in 10.0 mi SW 4.6 mph - N/A   Clear
8:36 AM 33.8 °F 29.6 °F 30.2 °F 87% 29.76 in 10.0 mi WSW 4.6 mph - N/A   Clear
8:56 AM 35.6 °F 31.7 °F 30.2 °F 81% 29.76 in 10.0 mi SW 4.6 mph - N/A   Clear
9:16 AM 37.4 °F 31.4 °F 32.0 °F 81% 29.76 in 10.0 mi WSW 8.1 mph - N/A   Clear
9:36 AM 39.2 °F 33.0 °F 32.0 °F 75% 29.75 in 10.0 mi West 9.2 mph - N/A   Clear
9:56 AM 42.8 °F 38.6 °F 33.8 °F 70% 29.74 in 10.0 mi WSW 6.9 mph - N/A   Clear
10:16 AM 44.6 °F 38.8 °F 33.8 °F 66% 29.73 in 10.0 mi West 11.5 mph - N/A   Clear
10:36 AM 46.4 °F 41.5 °F 35.6 °F 66% 29.72 in 10.0 mi WSW 10.4 mph - N/A   Clear
10:56 AM 48.2 °F - 35.6 °F 62% 29.71 in 10.0 mi WSW 13.8 mph - N/A   Clear
11:14 AM 50.0 °F - 37.4 °F 62% 29.71 in 10.0 mi SW 11.5 mph - N/A   Clear
11:24 AM 51.8 °F - 37.4 °F 58% 29.70 in 10.0 mi SW 11.5 mph 16.1 mph N/A   Clear
11:56 AM 53.6 °F - 37.4 °F 54% 29.68 in 10.0 mi SW 13.8 mph - N/A   Clear
12:16 PM 53.6 °F - 37.4 °F 54% 29.66 in 10.0 mi SW 16.1 mph - N/A   Unknown
12:30 PM 55.4 °F - 37.4 °F 51% 29.66 in 10.0 mi North - - N/A   Clear
12:56 PM 55.4 °F - 39.2 °F 54% 29.65 in 10.0 mi SSW 18.4 mph 24.2 mph N/A   Clear
1:16 PM 55.4 °F - 39.2 °F 54% 29.65 in 10.0 mi SSW 17.3 mph - N/A   Clear
1:36 PM 55.4 °F - 39.2 °F 54% 29.64 in 10.0 mi SW 16.1 mph 20.7 mph N/A   Clear
1:56 PM 57.2 °F - 39.2 °F 51% 29.62 in 10.0 mi SW 16.1 mph 21.9 mph N/A   Clear
2:16 PM 57.2 °F - 37.4 °F 48% 29.61 in 10.0 mi WSW 23.0 mph 27.6 mph N/A   Clear
2:36 PM 59.0 °F - 37.4 °F 45% 29.60 in 10.0 mi WSW 20.7 mph 27.6 mph N/A   Clear
2:56 PM 60.8 °F - 35.6 °F 39% 29.58 in 10.0 mi SW 17.3 mph 27.6 mph N/A   Clear
3:16 PM 60.8 °F - 35.6 °F 39% 29.57 in 10.0 mi WSW 24.2 mph 29.9 mph N/A   Clear
3:36 PM 60.8 °F - 35.6 °F 39% 29.58 in 10.0 mi WSW 24.2 mph - N/A   Clear
3:56 PM 57.2 °F - 35.6 °F 44% 29.58 in 10.0 mi WSW 18.4 mph 25.3 mph N/A   Clear
4:16 PM 57.2 °F - 37.4 °F 48% 29.57 in 10.0 mi SW 12.7 mph - N/A   Clear
4:36 PM 57.2 °F - 37.4 °F 48% 29.56 in 10.0 mi SW 15.0 mph 19.6 mph N/A   Clear
4:56 PM 59.0 °F - 37.4 °F 45% 29.55 in 10.0 mi WSW 13.8 mph - N/A   Clear
5:16 PM 57.2 °F - 37.4 °F 48% 29.54 in 10.0 mi SW 15.0 mph 19.6 mph N/A   Clear
5:36 PM 57.2 °F - 37.4 °F 48% 29.54 in 10.0 mi WSW 12.7 mph - N/A   Clear
5:56 PM 53.6 °F - 39.2 °F 58% 29.54 in 10.0 mi WSW 9.2 mph - N/A   Clear
6:16 PM 51.8 °F - 37.4 °F 58% 29.54 in 10.0 mi WSW 8.1 mph - N/A   Clear
6:36 PM 51.8 °F - 39.2 °F 62% 29.54 in 10.0 mi WSW 8.1 mph - N/A   Clear
6:56 PM 51.8 °F - 37.4 °F 58% 29.54 in 10.0 mi SW 9.2 mph - N/A   Clear
7:16 PM 50.0 °F - 37.4 °F 62% 29.53 in 10.0 mi SW 11.5 mph - N/A   Clear
7:36 PM 48.2 °F - 35.6 °F 62% 29.54 in 10.0 mi SW 11.5 mph - N/A   Clear
7:56 PM 48.2 °F - 35.6 °F 62% 29.54 in 10.0 mi SW 10.4 mph - N/A   Clear
8:16 PM 48.2 °F - 35.6 °F 62% 29.53 in 10.0 mi SW 9.2 mph - N/A   Clear
8:36 PM 46.4 °F 41.9 °F 35.6 °F 66% 29.53 in 10.0 mi WSW 9.2 mph - N/A   Clear
8:56 PM 42.8 °F 36.6 °F 33.8 °F 70% 29.53 in 10.0 mi WSW 11.5 mph - N/A   Clear
9:16 PM 44.6 °F 39.2 °F 33.8 °F 66% 29.53 in 10.0 mi West 10.4 mph - N/A   Clear
9:36 PM 44.6 °F 38.4 °F 33.8 °F 66% 29.54 in 10.0 mi West 12.7 mph - N/A   Clear
9:56 PM 44.6 °F 37.4 °F 35.6 °F 71% 29.54 in 10.0 mi WNW 16.1 mph 19.6 mph N/A   Clear
10:16 PM 44.6 °F 37.4 °F 35.6 °F 71% 29.55 in 10.0 mi WNW 16.1 mph - N/A   Clear
10:36 PM 42.8 °F 35.4 °F 33.8 °F 70% 29.55 in 10.0 mi WNW 15.0 mph - N/A   Clear
10:56 PM 42.8 °F 34.8 °F 33.8 °F 70% 29.56 in 10.0 mi WNW 17.3 mph 23.0 mph N/A   Clear
11:16 PM 42.8 °F 34.8 °F 33.8 °F 70% 29.57 in 10.0 mi NW 17.3 mph - N/A   Clear
11:36 PM 41.0 °F 33.5 °F 33.8 °F 76% 29.57 in 10.0 mi NW 13.8 mph - N/A   Clear
11:56 PM 39.2 °F 31.2 °F 33.8 °F 81% 29.57 in 10.0 mi NW 13.8 mph - N/A   Clear